1574550054,2019-11-24 00:00,51.00,987.22,0.00,1016.13,22.25,0.00,240,0.1
1574550114,2019-11-24 00:01,51.02,987.21,0.00,1016.12,22.24,0.00,240,0.1
1574550175,2019-11-24 00:02,51.01,987.20,0.00,1016.12,22.25,0.00,240,0.1
1574550235,2019-11-24 00:03,50.98,987.17,0.00,1016.09,22.26,0.00,240,0.1
1574550295,2019-11-24 00:04,51.04,987.20,0.00,1016.12,22.26,0.00,240,0.1
1574550355,2019-11-24 00:05,50.96,987.22,0.00,1016.13,22.27,0.00,240,0.1
1574550415,2019-11-24 00:06,50.99,987.20,0.00,1016.12,22.26,0.00,240,0.1
1574550475,2019-11-24 00:07,51.37,987.20,0.00,1016.12,22.25,0.00,240,0.1
1574550535,2019-11-24 00:08,51.00,987.21,0.00,1016.12,22.26,0.00,240,0.1
1574550595,2019-11-24 00:09,50.87,987.19,0.00,1016.10,22.26,0.00,240,0.1
1574550655,2019-11-24 00:10,50.99,987.20,0.00,1016.12,22.26,0.00,240,0.1
1574550716,2019-11-24 00:11,51.03,987.20,0.00,1016.11,22.26,0.00,240,0.1
1574550776,2019-11-24 00:12,50.95,987.21,0.00,1016.13,22.27,0.00,240,0.1
1574550836,2019-11-24 00:13,51.03,987.21,0.00,1016.13,22.26,0.00,240,0.1
1574550896,2019-11-24 00:14,51.05,987.23,0.00,1016.15,22.26,0.00,240,0.1
1574550956,2019-11-24 00:15,50.87,987.23,0.00,1016.15,22.27,0.00,240,0.1
1574551016,2019-11-24 00:16,51.04,987.25,0.00,1016.17,22.27,0.00,240,0.1
1574551077,2019-11-24 00:17,50.98,987.22,0.00,1016.14,22.28,0.00,240,0.1
1574551137,2019-11-24 00:18,50.99,987.20,0.00,1016.11,22.28,0.00,240,0.1
1574551197,2019-11-24 00:19,50.97,987.16,0.00,1016.08,22.28,0.00,240,0.1
1574551257,2019-11-24 00:20,50.99,987.15,0.00,1016.06,22.29,0.00,240,0.1
1574551317,2019-11-24 00:21,50.93,987.17,0.00,1016.08,22.29,0.00,240,0.1
1574551377,2019-11-24 00:22,50.91,987.19,0.00,1016.10,22.29,0.00,240,0.1
1574551438,2019-11-24 00:23,51.04,987.16,0.00,1016.07,22.29,0.00,240,0.1
1574551498,2019-11-24 00:24,50.81,987.15,0.00,1016.06,22.30,0.00,240,0.1
1574551558,2019-11-24 00:25,51.01,987.15,0.00,1016.06,22.29,0.00,240,0.1
1574551618,2019-11-24 00:26,50.93,987.15,0.00,1016.06,22.30,0.00,240,0.1
1574551678,2019-11-24 00:27,50.88,987.15,0.00,1016.07,22.30,0.00,240,0.1
1574551739,2019-11-24 00:28,51.01,987.11,0.00,1016.03,22.30,0.00,240,0.1
1574551799,2019-11-24 00:29,50.94,987.17,0.00,1016.09,22.31,0.00,240,0.1
1574551859,2019-11-24 00:30,51.15,987.16,0.00,1016.08,22.31,0.00,240,0.1
1574551919,2019-11-24 00:31,50.97,987.15,0.00,1016.07,22.32,0.00,240,0.1
1574551979,2019-11-24 00:32,50.99,987.16,0.00,1016.08,22.32,0.00,240,0.1
1574552039,2019-11-24 00:33,50.97,987.17,0.00,1016.08,22.32,0.00,240,0.1
1574552099,2019-11-24 00:34,50.97,987.15,0.00,1016.06,22.32,0.00,240,0.1
1574552159,2019-11-24 00:35,51.32,987.16,0.00,1016.08,22.33,0.00,240,0.1
1574552220,2019-11-24 00:37,50.95,987.13,0.00,1016.05,22.33,0.00,240,0.1
1574552280,2019-11-24 00:38,51.01,987.12,0.00,1016.04,22.33,0.00,240,0.1
1574552340,2019-11-24 00:39,50.99,987.13,0.00,1016.05,22.33,0.00,240,0.1
1574552400,2019-11-24 00:40,51.02,987.08,0.00,1016.00,22.33,0.00,240,0.1
1574552460,2019-11-24 00:41,51.01,987.09,0.00,1016.00,22.33,0.00,240,0.1
1574552520,2019-11-24 00:42,51.01,987.08,0.00,1015.99,22.32,0.00,240,0.1
1574552580,2019-11-24 00:43,51.03,987.07,0.00,1015.98,22.30,0.00,240,0.1
1574552641,2019-11-24 00:44,51.04,987.06,0.00,1015.98,22.31,0.00,240,0.1
1574552701,2019-11-24 00:45,51.29,987.10,0.00,1016.02,22.30,0.00,240,0.1
1574552761,2019-11-24 00:46,51.04,987.11,0.00,1016.03,22.29,0.00,240,0.1
1574552821,2019-11-24 00:47,51.05,987.12,0.00,1016.04,22.28,0.00,240,0.1
1574552882,2019-11-24 00:48,51.01,987.12,0.00,1016.04,22.26,0.00,240,0.1
1574552942,2019-11-24 00:49,51.04,987.13,0.00,1016.04,22.26,0.00,240,0.1
1574553002,2019-11-24 00:50,51.01,987.14,0.00,1016.06,22.24,0.00,240,0.1
1574553062,2019-11-24 00:51,51.06,987.15,0.00,1016.06,22.23,0.00,240,0.1
1574553122,2019-11-24 00:52,51.07,987.16,0.00,1016.08,22.21,0.00,240,0.1
1574553182,2019-11-24 00:53,51.16,987.15,0.00,1016.07,22.20,0.00,240,0.1
1574553243,2019-11-24 00:54,51.15,987.17,0.00,1016.09,22.19,0.00,240,0.1
1574553303,2019-11-24 00:55,51.15,987.18,0.00,1016.10,22.18,0.00,240,0.1
1574553363,2019-11-24 00:56,51.18,987.16,0.00,1016.07,22.16,0.00,240,0.1
1574553423,2019-11-24 00:57,51.24,987.16,0.00,1016.07,22.15,0.00,240,0.1
1574553483,2019-11-24 00:58,51.23,987.19,0.00,1016.10,22.14,0.00,240,0.1
1574553543,2019-11-24 00:59,51.21,987.20,0.00,1016.11,22.14,0.00,240,0.1
1574553604,2019-11-24 01:00,51.23,987.22,0.00,1016.14,22.12,0.00,240,0.1
1574553664,2019-11-24 01:01,51.30,987.22,0.00,1016.13,22.10,0.00,240,0.1
1574553724,2019-11-24 01:02,51.32,987.23,0.00,1016.14,22.09,0.00,240,0.1
1574553784,2019-11-24 01:03,51.33,987.24,0.00,1016.15,22.09,0.00,240,0.1
1574553844,2019-11-24 01:04,51.35,987.19,0.00,1016.11,22.07,0.00,240,0.1
1574553904,2019-11-24 01:05,51.34,987.21,0.00,1016.12,22.07,0.00,240,0.1
1574553964,2019-11-24 01:06,51.23,987.18,0.00,1016.10,22.05,0.00,240,0.1
1574554025,2019-11-24 01:07,51.38,987.21,0.00,1016.12,22.05,0.00,240,0.1
1574554085,2019-11-24 01:08,51.45,987.19,0.00,1016.10,22.02,0.00,240,0.1
1574554145,2019-11-24 01:09,51.51,987.22,0.00,1016.13,22.01,0.00,240,0.1
1574554205,2019-11-24 01:10,51.69,987.19,0.00,1016.11,22.00,0.00,240,0.1
1574554265,2019-11-24 01:11,51.52,987.24,0.00,1016.15,22.00,0.00,240,0.1
1574554326,2019-11-24 01:12,51.59,987.22,0.00,1016.13,21.99,0.00,240,0.1
1574554386,2019-11-24 01:13,51.54,987.27,0.00,1016.19,21.99,0.00,240,0.1
1574554446,2019-11-24 01:14,51.59,987.32,0.00,1016.24,21.98,0.00,240,0.1
1574554506,2019-11-24 01:15,51.61,987.31,0.00,1016.23,21.97,0.00,240,0.1
1574554566,2019-11-24 01:16,51.61,987.30,0.00,1016.21,21.96,0.00,240,0.1
1574554627,2019-11-24 01:17,51.66,987.26,0.00,1016.17,21.96,0.00,240,0.1
1574554687,2019-11-24 01:18,51.65,987.28,0.00,1016.19,21.96,0.00,240,0.1
1574554747,2019-11-24 01:19,51.67,987.28,0.00,1016.20,21.94,0.00,240,0.1
1574554808,2019-11-24 01:20,51.67,987.28,0.00,1016.19,21.93,0.00,240,0.1
1574554868,2019-11-24 01:21,51.73,987.34,0.00,1016.25,21.93,0.00,240,0.1
1574554928,2019-11-24 01:22,51.77,987.35,0.00,1016.26,21.91,0.00,240,0.1
1574554988,2019-11-24 01:23,51.82,987.35,0.00,1016.27,21.89,0.00,240,0.1
1574555048,2019-11-24 01:24,51.83,987.34,0.00,1016.25,21.89,0.00,240,0.1
1574555108,2019-11-24 01:25,51.88,987.34,0.00,1016.26,21.87,0.00,240,0.1
1574555168,2019-11-24 01:26,51.90,987.29,0.00,1016.21,21.85,0.00,240,0.1
1574555228,2019-11-24 01:27,51.75,987.35,0.00,1016.26,21.84,0.00,240,0.1
1574555289,2019-11-24 01:28,51.96,987.32,0.00,1016.24,21.84,0.00,240,0.1
1574555349,2019-11-24 01:29,51.99,987.28,0.00,1016.20,21.82,0.00,240,0.1
1574555409,2019-11-24 01:30,52.05,987.30,0.00,1016.22,21.82,0.00,240,0.1
1574555469,2019-11-24 01:31,52.09,987.29,0.00,1016.21,21.81,0.00,240,0.1
1574555529,2019-11-24 01:32,52.20,987.32,0.00,1016.23,21.80,0.00,240,0.1
1574555589,2019-11-24 01:33,52.13,987.34,0.00,1016.26,21.79,0.00,240,0.1
1574555649,2019-11-24 01:34,52.17,987.37,0.00,1016.28,21.79,0.00,240,0.1
1574555709,2019-11-24 01:35,52.30,987.36,0.00,1016.28,21.80,0.00,240,0.1
1574555769,2019-11-24 01:36,52.27,987.34,0.00,1016.26,21.78,0.00,240,0.1
1574555830,2019-11-24 01:37,52.19,987.33,0.00,1016.25,21.78,0.00,240,0.1
1574555890,2019-11-24 01:38,52.29,987.34,0.00,1016.26,21.76,0.00,240,0.1
1574555950,2019-11-24 01:39,52.30,987.34,0.00,1016.25,21.77,0.00,240,0.1
1574556011,2019-11-24 01:40,52.30,987.30,0.00,1016.21,21.75,0.00,240,0.1
1574556071,2019-11-24 01:41,52.58,987.32,0.00,1016.24,21.73,0.00,240,0.1
1574556131,2019-11-24 01:42,51.93,987.30,0.00,1016.21,21.74,0.00,240,0.1
1574556191,2019-11-24 01:43,52.31,987.25,0.00,1016.17,21.72,0.00,240,0.1
1574556251,2019-11-24 01:44,52.33,987.22,0.00,1016.14,21.71,0.00,240,0.1
1574556311,2019-11-24 01:45,52.37,987.21,0.00,1016.13,21.69,0.00,240,0.1
1574556371,2019-11-24 01:46,52.79,987.22,0.00,1016.14,21.70,0.00,240,0.1
1574556431,2019-11-24 01:47,52.34,987.25,0.00,1016.16,21.69,0.00,240,0.1
1574556491,2019-11-24 01:48,52.38,987.21,0.00,1016.13,21.68,0.00,240,0.1
1574556552,2019-11-24 01:49,52.41,987.26,0.00,1016.17,21.68,0.00,240,0.1
1574556612,2019-11-24 01:50,52.41,987.22,0.00,1016.14,21.68,0.00,240,0.1
1574556672,2019-11-24 01:51,52.47,987.22,0.00,1016.13,21.66,0.00,240,0.1
1574556732,2019-11-24 01:52,52.43,987.24,0.00,1016.16,21.66,0.00,240,0.1
1574556793,2019-11-24 01:53,52.45,987.25,0.00,1016.16,21.65,0.00,240,0.1
1574556853,2019-11-24 01:54,52.46,987.22,0.00,1016.13,21.65,0.00,240,0.1
1574556913,2019-11-24 01:55,52.50,987.20,0.00,1016.12,21.63,0.00,240,0.1
1574556973,2019-11-24 01:56,52.60,987.22,0.00,1016.13,21.62,0.00,240,0.1
1574557033,2019-11-24 01:57,51.88,987.22,0.00,1016.14,21.62,0.00,240,0.1
1574557093,2019-11-24 01:58,52.54,987.22,0.00,1016.13,21.61,0.00,240,0.1
1574557153,2019-11-24 01:59,52.56,987.30,0.00,1016.22,21.61,0.00,240,0.1
1574557213,2019-11-24 02:00,52.54,987.29,0.00,1016.21,21.62,0.00,240,0.1
1574557273,2019-11-24 02:01,52.39,987.35,0.00,1016.27,21.60,0.00,240,0.1
1574557333,2019-11-24 02:02,52.58,987.34,0.00,1016.26,21.60,0.00,240,0.1
1574557393,2019-11-24 02:03,52.58,987.32,0.00,1016.24,21.59,0.00,240,0.1
1574557453,2019-11-24 02:04,52.59,987.31,0.00,1016.23,21.60,0.00,240,0.1
1574557514,2019-11-24 02:05,52.61,987.29,0.00,1016.20,21.58,0.00,240,0.1
1574557574,2019-11-24 02:06,52.61,987.28,0.00,1016.19,21.58,0.00,240,0.1
1574557634,2019-11-24 02:07,52.59,987.28,0.00,1016.19,21.57,0.00,240,0.1
1574557694,2019-11-24 02:08,52.66,987.29,0.00,1016.20,21.57,0.00,240,0.1
1574557755,2019-11-24 02:09,52.67,987.30,0.00,1016.21,21.56,0.00,240,0.1
1574557815,2019-11-24 02:10,52.67,987.29,0.00,1016.21,21.55,0.00,240,0.1
1574557875,2019-11-24 02:11,52.44,987.30,0.00,1016.22,21.55,0.00,240,0.1
1574557935,2019-11-24 02:12,52.68,987.29,0.00,1016.20,21.55,0.00,240,0.1
1574557995,2019-11-24 02:13,52.67,987.27,0.00,1016.19,21.55,0.00,240,0.1
1574558055,2019-11-24 02:14,52.70,987.31,0.00,1016.22,21.55,0.00,240,0.1
1574558115,2019-11-24 02:15,52.69,987.28,0.00,1016.19,21.53,0.00,240,0.1
1574558175,2019-11-24 02:16,53.07,987.29,0.00,1016.20,21.53,0.00,240,0.1
1574558235,2019-11-24 02:17,52.70,987.29,0.00,1016.21,21.53,0.00,240,0.1
1574558295,2019-11-24 02:18,52.70,987.31,0.00,1016.22,21.52,0.00,240,0.1
1574558355,2019-11-24 02:19,52.74,987.31,0.00,1016.22,21.52,0.00,240,0.1
1574558415,2019-11-24 02:20,52.71,987.29,0.00,1016.20,21.50,0.00,240,0.1
1574558476,2019-11-24 02:21,52.66,987.26,0.00,1016.17,21.49,0.00,240,0.1
1574558536,2019-11-24 02:22,52.78,987.22,0.00,1016.14,21.49,0.00,240,0.1
1574558596,2019-11-24 02:23,52.79,987.22,0.00,1016.14,21.48,0.00,240,0.1
1574558656,2019-11-24 02:24,52.78,987.17,0.00,1016.09,21.47,0.00,240,0.1
1574558716,2019-11-24 02:25,52.79,987.18,0.00,1016.10,21.47,0.00,240,0.1
1574558776,2019-11-24 02:26,52.76,987.15,0.00,1016.07,21.48,0.00,240,0.1
1574558836,2019-11-24 02:27,52.82,987.16,0.00,1016.07,21.46,0.00,240,0.1
1574558896,2019-11-24 02:28,52.79,987.12,0.00,1016.04,21.47,0.00,240,0.1
1574558956,2019-11-24 02:29,52.83,987.15,0.00,1016.07,21.45,0.00,240,0.1
1574559017,2019-11-24 02:30,52.87,987.10,0.00,1016.01,21.45,0.00,240,0.1
1574559077,2019-11-24 02:31,52.82,987.14,0.00,1016.06,21.46,0.00,240,0.1
1574559137,2019-11-24 02:32,52.87,987.10,0.00,1016.02,21.44,0.00,240,0.1
1574559197,2019-11-24 02:33,52.82,987.09,0.00,1016.01,21.44,0.00,240,0.1
1574559257,2019-11-24 02:34,52.49,987.07,0.00,1015.99,21.43,0.00,240,0.1
1574559317,2019-11-24 02:35,52.85,987.06,0.00,1015.97,21.43,0.00,240,0.1
1574559377,2019-11-24 02:36,52.91,987.09,0.00,1016.00,21.42,0.00,240,0.1
1574559437,2019-11-24 02:37,52.85,987.08,0.00,1016.00,21.44,0.00,240,0.1
1574559497,2019-11-24 02:38,52.90,987.11,0.00,1016.02,21.42,0.00,240,0.1
1574559558,2019-11-24 02:39,52.75,987.09,0.00,1016.01,21.42,0.00,240,0.1
1574559618,2019-11-24 02:40,52.85,987.09,0.00,1016.01,21.43,0.00,240,0.1
1574559678,2019-11-24 02:41,52.90,987.06,0.00,1015.97,21.42,0.00,240,0.1
1574559738,2019-11-24 02:42,52.89,987.05,0.00,1015.97,21.40,0.00,240,0.1
1574559799,2019-11-24 02:43,52.89,987.07,0.00,1015.98,21.41,0.00,240,0.1
1574559859,2019-11-24 02:44,52.92,987.06,0.00,1015.97,21.39,0.00,240,0.1
1574559919,2019-11-24 02:45,52.98,987.10,0.00,1016.01,21.38,0.00,240,0.1
1574559979,2019-11-24 02:46,52.90,987.07,0.00,1015.98,21.39,0.00,240,0.1
1574560039,2019-11-24 02:47,52.95,987.07,0.00,1015.98,21.37,0.00,240,0.1
1574560100,2019-11-24 02:48,52.93,987.06,0.00,1015.98,21.39,0.00,240,0.1
1574560160,2019-11-24 02:49,52.79,987.07,0.00,1015.98,21.39,0.00,240,0.1
1574560220,2019-11-24 02:50,52.93,987.08,0.00,1016.00,21.38,0.00,240,0.1
1574560280,2019-11-24 02:51,52.94,987.09,0.00,1016.00,21.36,0.00,240,0.1
1574560340,2019-11-24 02:52,52.96,987.10,0.00,1016.01,21.36,0.00,240,0.1
1574560400,2019-11-24 02:53,52.97,987.07,0.00,1015.99,21.37,0.00,240,0.1
1574560460,2019-11-24 02:54,52.85,987.08,0.00,1016.00,21.37,0.00,240,0.1
1574560520,2019-11-24 02:55,52.91,987.07,0.00,1015.99,21.36,0.00,240,0.1
1574560580,2019-11-24 02:56,52.93,987.09,0.00,1016.00,21.36,0.00,240,0.1
1574560641,2019-11-24 02:57,52.68,987.07,0.00,1015.99,21.36,0.00,240,0.1
1574560701,2019-11-24 02:58,52.88,987.09,0.00,1016.00,21.34,0.00,240,0.1
1574560761,2019-11-24 02:59,52.96,987.10,0.00,1016.01,21.35,0.00,240,0.1
1574560821,2019-11-24 03:00,52.95,987.11,0.00,1016.02,21.35,0.00,240,0.1
1574560881,2019-11-24 03:01,53.25,987.08,0.00,1016.00,21.34,0.00,240,0.1
1574560941,2019-11-24 03:02,52.96,987.07,0.00,1015.98,21.34,0.00,240,0.1
1574561001,2019-11-24 03:03,52.99,987.08,0.00,1015.99,21.33,0.00,240,0.1
1574561062,2019-11-24 03:04,52.83,987.04,0.00,1015.95,21.33,0.00,240,0.1
1574561122,2019-11-24 03:05,52.96,987.02,0.00,1015.94,21.33,0.00,240,0.1
1574561182,2019-11-24 03:06,52.99,987.03,0.00,1015.94,21.32,0.00,240,0.1
1574561242,2019-11-24 03:07,53.00,987.00,0.00,1015.92,21.32,0.00,240,0.1
1574561302,2019-11-24 03:08,53.12,986.99,0.00,1015.90,21.31,0.00,240,0.1
1574561362,2019-11-24 03:09,52.93,986.99,0.00,1015.91,21.31,0.00,240,0.1
1574561422,2019-11-24 03:10,53.01,987.01,0.00,1015.92,21.31,0.00,240,0.1
1574561483,2019-11-24 03:11,53.01,986.99,0.00,1015.90,21.31,0.00,240,0.1
1574561543,2019-11-24 03:12,53.01,986.98,0.00,1015.90,21.31,0.00,240,0.1
1574561603,2019-11-24 03:13,53.05,986.99,0.00,1015.90,21.30,0.00,240,0.1
1574561663,2019-11-24 03:14,53.05,986.98,0.00,1015.90,21.30,0.00,240,0.1
1574561723,2019-11-24 03:15,53.06,987.00,0.00,1015.91,21.30,0.00,240,0.1
1574561783,2019-11-24 03:16,53.02,987.02,0.00,1015.94,21.29,0.00,240,0.1
1574561844,2019-11-24 03:17,53.05,987.01,0.00,1015.92,21.29,0.00,240,0.1
1574561904,2019-11-24 03:18,53.07,987.04,0.00,1015.96,21.29,0.00,240,0.1
1574561964,2019-11-24 03:19,53.04,987.06,0.00,1015.97,21.29,0.00,240,0.1
1574562024,2019-11-24 03:20,53.04,987.01,0.00,1015.93,21.28,0.00,240,0.1
1574562084,2019-11-24 03:21,52.82,987.05,0.00,1015.97,21.29,0.00,240,0.1
1574562145,2019-11-24 03:22,53.04,987.04,0.00,1015.95,21.28,0.00,240,0.1
1574562205,2019-11-24 03:23,53.07,987.03,0.00,1015.95,21.28,0.00,240,0.1
1574562265,2019-11-24 03:24,53.07,987.02,0.00,1015.94,21.27,0.00,240,0.1
1574562325,2019-11-24 03:25,53.13,986.99,0.00,1015.90,21.27,0.00,240,0.1
1574562385,2019-11-24 03:26,53.05,987.01,0.00,1015.92,21.27,0.00,240,0.1
1574562445,2019-11-24 03:27,53.08,986.99,0.00,1015.91,21.27,0.00,240,0.1
1574562506,2019-11-24 03:28,53.08,987.02,0.00,1015.93,21.27,0.00,240,0.1
1574562566,2019-11-24 03:29,53.07,987.01,0.00,1015.93,21.27,0.00,240,0.1
1574562626,2019-11-24 03:30,53.12,987.01,0.00,1015.93,21.26,0.00,240,0.1
1574562686,2019-11-24 03:31,53.12,987.03,0.00,1015.95,21.25,0.00,240,0.1
1574562747,2019-11-24 03:32,53.41,987.01,0.00,1015.93,21.25,0.00,240,0.1
1574562807,2019-11-24 03:33,53.12,987.00,0.00,1015.92,21.25,0.00,240,0.1
1574562867,2019-11-24 03:34,53.15,987.00,0.00,1015.92,21.24,0.00,240,0.1
1574562927,2019-11-24 03:35,53.16,987.05,0.00,1015.96,21.24,0.00,240,0.1
1574562987,2019-11-24 03:36,53.12,987.01,0.00,1015.93,21.23,0.00,240,0.1
1574563047,2019-11-24 03:37,53.18,986.99,0.00,1015.90,21.23,0.00,240,0.1
1574563107,2019-11-24 03:38,53.15,987.01,0.00,1015.93,21.23,0.00,240,0.1
1574563167,2019-11-24 03:39,53.22,986.97,0.00,1015.89,21.22,0.00,240,0.1
1574563228,2019-11-24 03:40,53.20,986.98,0.00,1015.90,21.22,0.00,240,0.1
1574563288,2019-11-24 03:41,53.17,987.00,0.00,1015.92,21.22,0.00,240,0.1
1574563348,2019-11-24 03:42,53.23,986.97,0.00,1015.88,21.21,0.00,240,0.1
1574563408,2019-11-24 03:43,53.22,986.97,0.00,1015.88,21.22,0.00,240,0.1
1574563468,2019-11-24 03:44,53.21,986.95,0.00,1015.87,21.20,0.00,240,0.1
1574563528,2019-11-24 03:45,53.20,986.97,0.00,1015.88,21.20,0.00,240,0.1
1574563589,2019-11-24 03:46,53.19,986.93,0.00,1015.85,21.21,0.00,240,0.1
1574563649,2019-11-24 03:47,53.21,986.96,0.00,1015.87,21.19,0.00,240,0.1
1574563709,2019-11-24 03:48,53.39,986.94,0.00,1015.86,21.20,0.00,240,0.1
1574563769,2019-11-24 03:49,53.18,986.95,0.00,1015.87,21.20,0.00,240,0.1
1574563829,2019-11-24 03:50,53.11,986.98,0.00,1015.90,21.19,0.00,240,0.1
1574563889,2019-11-24 03:51,52.96,986.97,0.00,1015.89,21.19,0.00,240,0.1
1574563949,2019-11-24 03:52,53.21,987.03,0.00,1015.94,21.20,0.00,240,0.1
1574564010,2019-11-24 03:53,53.24,986.98,0.00,1015.89,21.19,0.00,240,0.1
1574564070,2019-11-24 03:54,53.24,986.93,0.00,1015.84,21.18,0.00,240,0.1
1574564130,2019-11-24 03:55,53.25,986.96,0.00,1015.88,21.18,0.00,240,0.1
1574564190,2019-11-24 03:56,53.23,986.91,0.00,1015.83,21.18,0.00,240,0.1
1574564251,2019-11-24 03:57,52.81,986.90,0.00,1015.81,21.18,0.00,240,0.1
1574564311,2019-11-24 03:58,53.25,986.88,0.00,1015.80,21.17,0.00,240,0.1
1574564371,2019-11-24 03:59,53.25,986.87,0.00,1015.78,21.18,0.00,240,0.1
1574564431,2019-11-24 04:00,53.20,986.85,0.00,1015.76,21.17,0.00,240,0.1
1574564491,2019-11-24 04:01,53.13,986.82,0.00,1015.73,21.18,0.00,240,0.1
1574564551,2019-11-24 04:02,53.10,986.83,0.00,1015.75,21.21,0.00,240,0.1
1574564611,2019-11-24 04:03,53.37,986.84,0.00,1015.75,21.24,0.00,240,0.1
1574564671,2019-11-24 04:04,52.92,986.82,0.00,1015.73,21.29,0.00,240,0.1
1574564731,2019-11-24 04:05,52.65,986.82,0.00,1015.73,21.31,0.00,240,0.1
1574564792,2019-11-24 04:06,52.80,986.82,0.00,1015.73,21.34,0.00,240,0.1
1574564852,2019-11-24 04:07,52.73,986.81,0.00,1015.73,21.38,0.00,240,0.1
1574564912,2019-11-24 04:08,52.67,986.82,0.00,1015.74,21.41,0.00,240,0.1
1574564972,2019-11-24 04:09,52.63,986.81,0.00,1015.73,21.43,0.00,240,0.1
1574565032,2019-11-24 04:10,52.74,986.81,0.00,1015.73,21.46,0.00,240,0.1
1574565092,2019-11-24 04:11,52.55,986.79,0.00,1015.71,21.48,0.00,240,0.1
1574565152,2019-11-24 04:12,52.49,986.79,0.00,1015.71,21.50,0.00,240,0.1
1574565212,2019-11-24 04:13,52.46,986.83,0.00,1015.75,21.52,0.00,240,0.1
1574565273,2019-11-24 04:14,52.44,986.86,0.00,1015.77,21.55,0.00,240,0.1
1574565333,2019-11-24 04:15,52.39,986.84,0.00,1015.75,21.55,0.00,240,0.1
1574565393,2019-11-24 04:16,52.37,986.86,0.00,1015.78,21.56,0.00,240,0.1
1574565453,2019-11-24 04:17,52.33,986.82,0.00,1015.73,21.59,0.00,240,0.1
1574565513,2019-11-24 04:18,52.30,986.88,0.00,1015.80,21.60,0.00,240,0.1
1574565573,2019-11-24 04:19,52.29,986.85,0.00,1015.77,21.61,0.00,240,0.1
1574565634,2019-11-24 04:20,52.24,986.85,0.00,1015.77,21.63,0.00,240,0.1
1574565694,2019-11-24 04:21,52.23,986.81,0.00,1015.72,21.64,0.00,240,0.1
1574565754,2019-11-24 04:22,52.32,986.79,0.00,1015.71,21.65,0.00,240,0.1
1574565814,2019-11-24 04:23,52.18,986.79,0.00,1015.71,21.66,0.00,240,0.1
1574565874,2019-11-24 04:24,52.13,986.79,0.00,1015.70,21.68,0.00,240,0.1
1574565934,2019-11-24 04:25,52.16,986.79,0.00,1015.71,21.69,0.00,240,0.1
1574565995,2019-11-24 04:26,52.15,986.77,0.00,1015.69,21.70,0.00,240,0.1
1574566055,2019-11-24 04:27,51.89,986.76,0.00,1015.67,21.71,0.00,240,0.1
1574566115,2019-11-24 04:28,52.09,986.75,0.00,1015.66,21.72,0.00,240,0.1
1574566175,2019-11-24 04:29,52.09,986.78,0.00,1015.70,21.73,0.00,240,0.1
1574566235,2019-11-24 04:30,52.04,986.75,0.00,1015.66,21.74,0.00,240,0.1
1574566295,2019-11-24 04:31,52.02,986.78,0.00,1015.69,21.75,0.00,240,0.1
1574566355,2019-11-24 04:32,51.99,986.77,0.00,1015.69,21.75,0.00,240,0.1
1574566415,2019-11-24 04:33,52.00,986.80,0.00,1015.72,21.76,0.00,240,0.1
1574566476,2019-11-24 04:34,51.99,986.81,0.00,1015.73,21.77,0.00,240,0.1
1574566536,2019-11-24 04:35,51.98,986.80,0.00,1015.72,21.78,0.00,240,0.1
1574566596,2019-11-24 04:36,51.97,986.79,0.00,1015.71,21.79,0.00,240,0.1
1574566656,2019-11-24 04:37,51.92,986.78,0.00,1015.69,21.80,0.00,240,0.1
1574566716,2019-11-24 04:38,52.04,986.81,0.00,1015.73,21.80,0.00,240,0.1
1574566776,2019-11-24 04:39,51.97,986.82,0.00,1015.74,21.81,0.00,240,0.1
1574566836,2019-11-24 04:40,51.44,986.82,0.00,1015.73,21.81,0.00,240,0.1
1574566896,2019-11-24 04:41,51.87,986.86,0.00,1015.77,21.83,0.00,240,0.1
1574566956,2019-11-24 04:42,51.90,986.89,0.00,1015.81,21.83,0.00,240,0.1
1574567017,2019-11-24 04:43,51.44,986.86,0.00,1015.78,21.85,0.00,240,0.1
1574567077,2019-11-24 04:44,51.82,986.87,0.00,1015.79,21.85,0.00,240,0.1
1574567137,2019-11-24 04:45,51.69,986.87,0.00,1015.78,21.85,0.00,240,0.1
1574567197,2019-11-24 04:46,51.79,986.84,0.00,1015.75,21.87,0.00,240,0.1
1574567258,2019-11-24 04:47,51.83,986.84,0.00,1015.75,21.87,0.00,240,0.1
1574567318,2019-11-24 04:48,51.83,986.83,0.00,1015.74,21.87,0.00,240,0.1
1574567378,2019-11-24 04:49,51.77,986.82,0.00,1015.74,21.88,0.00,240,0.1
1574567438,2019-11-24 04:50,51.79,986.81,0.00,1015.73,21.89,0.00,240,0.1
1574567498,2019-11-24 04:51,51.75,986.79,0.00,1015.71,21.89,0.00,240,0.1
1574567558,2019-11-24 04:52,51.72,986.76,0.00,1015.68,21.90,0.00,240,0.1
1574567619,2019-11-24 04:53,51.78,986.80,0.00,1015.72,21.91,0.00,240,0.1
1574567679,2019-11-24 04:54,51.75,986.79,0.00,1015.71,21.90,0.00,240,0.1
1574567739,2019-11-24 04:55,51.75,986.78,0.00,1015.70,21.91,0.00,240,0.1
1574567799,2019-11-24 04:56,51.78,986.78,0.00,1015.69,21.91,0.00,240,0.1
1574567859,2019-11-24 04:57,51.73,986.76,0.00,1015.68,21.93,0.00,240,0.1
1574567919,2019-11-24 04:58,51.73,986.78,0.00,1015.70,21.92,0.00,240,0.1
1574567980,2019-11-24 04:59,51.75,986.80,0.00,1015.72,21.94,0.00,240,0.1
1574568040,2019-11-24 05:00,51.70,986.80,0.00,1015.72,21.93,0.00,240,0.1
1574568100,2019-11-24 05:01,51.68,986.82,0.00,1015.73,21.94,0.00,240,0.1
1574568160,2019-11-24 05:02,51.74,986.79,0.00,1015.70,21.94,0.00,240,0.1
1574568220,2019-11-24 05:03,51.69,986.82,0.00,1015.74,21.95,0.00,240,0.1
1574568280,2019-11-24 05:04,51.76,986.82,0.00,1015.73,21.95,0.00,240,0.1
1574568341,2019-11-24 05:05,51.71,986.80,0.00,1015.72,21.96,0.00,240,0.1
1574568401,2019-11-24 05:06,51.65,986.81,0.00,1015.72,21.97,0.00,240,0.1
1574568461,2019-11-24 05:07,51.64,986.82,0.00,1015.73,21.97,0.00,240,0.1
1574568521,2019-11-24 05:08,51.66,986.81,0.00,1015.72,21.98,0.00,240,0.1
1574568581,2019-11-24 05:09,51.65,986.81,0.00,1015.72,21.98,0.00,240,0.1
1574568642,2019-11-24 05:10,51.66,986.77,0.00,1015.69,21.98,0.00,240,0.1
1574568702,2019-11-24 05:11,51.66,986.78,0.00,1015.70,21.99,0.00,240,0.1
1574568762,2019-11-24 05:12,51.64,986.79,0.00,1015.71,21.99,0.00,240,0.1
1574568822,2019-11-24 05:13,51.71,986.80,0.00,1015.72,21.99,0.00,240,0.1
1574568882,2019-11-24 05:14,51.87,986.84,0.00,1015.75,22.00,0.00,240,0.1
1574568942,2019-11-24 05:15,51.68,986.87,0.00,1015.78,22.01,0.00,240,0.1
1574569002,2019-11-24 05:16,51.63,986.90,0.00,1015.82,22.01,0.00,240,0.1
1574569063,2019-11-24 05:17,51.63,986.90,0.00,1015.81,22.02,0.00,240,0.1
1574569123,2019-11-24 05:18,51.64,986.91,0.00,1015.82,22.03,0.00,240,0.1
1574569183,2019-11-24 05:19,51.68,986.89,0.00,1015.81,22.03,0.00,240,0.1
1574569243,2019-11-24 05:20,51.61,986.89,0.00,1015.81,22.03,0.00,240,0.1
1574569303,2019-11-24 05:21,51.33,986.91,0.00,1015.83,22.03,0.00,240,0.1
1574569363,2019-11-24 05:22,51.68,986.91,0.00,1015.82,22.03,0.00,240,0.1
1574569424,2019-11-24 05:23,51.59,986.92,0.00,1015.83,22.05,0.00,240,0.1
1574569484,2019-11-24 05:24,51.60,986.90,0.00,1015.81,22.06,0.00,240,0.1
1574569544,2019-11-24 05:25,51.63,986.88,0.00,1015.80,22.05,0.00,240,0.1
1574569604,2019-11-24 05:26,51.58,986.92,0.00,1015.83,22.06,0.00,240,0.1
1574569664,2019-11-24 05:27,51.61,986.93,0.00,1015.85,22.06,0.00,240,0.1
1574569725,2019-11-24 05:28,51.61,986.91,0.00,1015.82,22.08,0.00,240,0.1